Simultaneous Nadir Overpasses (SNOs) Predictions

Prediction of SNOs between NOAA-15 and METOP-C Satellite Orbit:

Table of predicted SNOs for the next 14.0 days since TLE Epoch: 3/27/2020
Index Date (NOAA-15) Time (NOAA-15) Lat,Lon (NOAA-15) SZA (NOAA-15 ) Date (METOP-C) Time (METOP-C) Lat,Lon (METOP-C) SZA (METOP-C ) Distance(km) Time Diff (sec)
1 04/07/2020 18:10:20 -80.91, 122.55 104.69 04/07/2020 18:09:10 -80.91, 122.71 104.71 2.71 70
2 04/07/2020 19:00:52 80.89, -69.81 75.31 04/07/2020 18:59:51 80.91, -69.88 75.30 2.20 61
3 04/07/2020 19:51:23 -80.91, 97.14 104.73 04/07/2020 19:50:32 -80.90, 97.23 104.75 2.39 51
4 04/07/2020 20:41:55 80.90, -95.23 75.28 04/07/2020 20:41:13 80.90, -95.36 75.25 2.25 42
5 04/07/2020 21:32:25 -80.90, 72.08 104.74 04/07/2020 21:31:53 -80.91, 72.11 104.75 0.73 32
6 04/07/2020 22:22:58 80.91,-120.66 75.24 04/07/2020 22:22:34 80.91,-120.48 75.26 3.12 24
7 04/07/2020 23:13:28 -80.91, 46.66 104.78 04/07/2020 23:13:15 -80.90, 46.63 104.79 1.25 13
8 04/08/2020 00:04:01 80.92,-146.08 75.21 04/08/2020 00:03:56 80.91,-145.96 75.21 2.41 5
9 04/08/2020 00:54:30 -80.90, 21.60 104.79 04/08/2020 00:54:36 -80.91, 21.50 104.79 2.09 6
10 04/08/2020 01:45:03 80.91,-171.14 75.20 04/08/2020 01:45:17 80.92,-171.08 75.21 1.48 14
11 04/08/2020 02:35:33 -80.91, -3.82 104.83 04/08/2020 02:35:58 -80.91, -3.98 104.83 2.84 25
12 04/08/2020 03:26:06 80.92, 163.43 75.16 04/08/2020 03:26:39 80.91, 163.44 75.17 0.61 33
13 04/08/2020 04:16:36 -80.92, -29.23 104.86 04/08/2020 04:17:19 -80.92, -29.10 104.83 2.40 43
14 04/08/2020 05:07:08 80.91, 138.37 75.15 04/08/2020 05:08:00 80.92, 138.31 75.17 1.92 52
15 04/08/2020 05:57:39 -80.93, -54.65 104.89 04/08/2020 05:58:41 -80.91, -54.58 104.87 2.14 62




NCC Satellite Simultaneous Nadir Overpasses (SNOs) Prediction Service
